N1LTP Weather Reports


time (UTC)temp
C
wind
direction
speed
KPH
gust
KPH
rain 1hr
cm
rain 24hr
cm
rain mn
cm
humidity
%
barometer
mb
20260903201512 24 66 1.6 3.2 0.00 0.58 0.58 83 1011.0
20260903200011 25 65 1.6 8.0 0.00 0.58 0.58 83 1010.9
20260903194510 24 84 0.0 6.4 0.00 0.58 0.58 84 1011.0
20260903193008 24 94 1.6 6.4 0.00 0.58 0.58 84 1011.1
20260903191513 24 94 0.0 3.2 0.00 0.58 0.58 83 1011.3
20260903190004 25 94 1.6 4.8 0.00 0.58 0.58 83 1011.3
20260903184502 25 94 1.6 6.4 0.00 0.58 0.58 82 1011.5
20260903183100 25 94 3.2 6.4 0.00 0.58 0.58 82 1011.5
20260903181558 25 329 0.0 3.2 0.00 0.58 0.58 83 1011.7
20260903180106 25 329 0.0 4.8 0.00 0.58 0.58 81 1011.7
20260903174609 25 348 1.6 4.8 0.00 0.58 0.58 82 1011.8
20260903173055 25 348 1.6 8.0 0.00 0.58 0.58 83 1011.8
20260903171549 24 332 3.2 8.0 0.00 0.58 0.58 85 1012.0
20260903170105 23 316 1.6 9.7 0.00 0.58 0.58 87 1012.0
20260903164549 22 339 0.0 4.8 0.00 0.58 0.58 89 1011.9
20260903163036 22 336 0.0 3.2 0.00 0.58 0.58 90 1011.9
20260903161534 22 333 0.0 6.4 0.00 0.58 0.58 91 1011.9
20260903160033 21 350 0.0 3.2 0.00 0.58 0.58 92 1012.1
20260903154528 21 360 1.6 8.0 0.00 0.58 0.58 92 1012.4
20260903153025 21 340 1.6 6.4 0.00 0.58 0.58 92 1012.6
20260903151525 21 342 0.0 3.2 0.00 0.58 0.58 92 1012.7
20260903150027 21 338 0.0 3.2 0.00 0.58 0.58 92 1012.8
20260903144519 21 338 0.0 1.6 0.00 0.58 0.58 92 1013.1
20260903143017 21 338 0.0 9.7 0.00 0.58 0.58 92 1013.2
20260903141519 20 346 0.0 4.8 0.00 0.58 0.58 93 1013.4
20260903140012 20 346 0.0 3.2 0.00 0.58 0.58 92 1013.7
20260903134511 20 346 0.0 1.6 0.00 0.58 0.58 93 1013.7
20260903133010 20 346 0.0 0.0 0.00 0.58 0.58 92 1013.6
20260903131507 20 346 0.0 1.6 0.00 0.58 0.58 92 1013.6
20260903130006 19 346 0.0 3.2 0.00 0.58 0.58 92 1013.7
20260903124503 19 346 0.0 3.2 0.00 0.58 0.58 92 1013.8
20260903123100 18 346 0.0 1.6 0.03 0.58 0.58 92 1013.9
20260903121558 18 346 0.0 0.0 0.08 0.58 0.58 92 1014.1
20260903120055 18 346 0.0 3.2 0.10 0.58 0.58 92 1014.2
20260903114554 18 332 0.0 3.2 0.13 0.58 0.58 92 1014.5
20260903113051 18 328 0.0 6.4 0.10 0.56 0.56 91 1014.6
20260903111620 17 293 0.0 4.8 0.08 0.51 0.51 91 1014.4
20260903110059 17 43 0.0 3.2 0.05 0.48 0.48 91 1014.5
20260903104600 17 44 0.0 1.6 0.08 0.46 0.46 91 1014.3
20260903103047 17 44 0.0 3.2 0.20 0.46 0.46 91 1014.1
20260903101548 17 48 0.0 1.6 0.20 0.43 0.43 90 1014.1
20260903100043 17 48 0.0 3.2 0.20 0.43 0.43 90 1014.1
20260903094540 17 71 0.0 1.6 0.20 0.38 0.38 90 1014.4
20260903093042 17 74 0.0 0.0 0.15 0.25 0.25 89 1014.5
20260903091537 17 74 0.0 0.0 0.23 0.23 0.23 89 1014.5
20260903090040 17 74 0.0 1.6 0.23 0.23 0.23 89 1014.6
20260903084536 17 74 0.0 1.6 0.18 0.18 0.18 88 1014.8
20260903083031 17 74 0.0 0.0 0.10 0.10 0.10 88 1015.3
20260903081531 17 74 0.0 1.6 0.00 0.00 0.00 87 1015.4
20260903080029 17 74 0.0 0.0 0.00 0.00 0.00 87 1015.2
20260903074527 17 74 0.0 0.0 0.00 0.00 0.00 86 1015.5
20260903073036 17 74 0.0 0.0 0.00 0.00 0.00 86 1015.7
20260903071523 17 74 0.0 0.0 0.00 0.00 0.00 86 1016.0
20260903070033 17 74 0.0 1.6 0.00 0.00 0.00 85 1016.3
20260903064519 17 74 0.0 1.6 0.00 0.00 0.00 86 1016.5
20260903063016 17 74 0.0 1.6 0.00 0.00 0.00 86 1016.8
20260903061531 17 74 0.0 1.6 0.00 0.00 0.00 86 1017.0
20260903060013 16 74 0.0 0.0 0.00 0.00 0.00 85 1017.2
20260903054510 16 74 0.0 0.0 0.00 0.00 0.00 86 1017.6
20260903053010 16 74 0.0 0.0 0.00 0.00 0.00 86 1017.6
20260903051510 16 74 0.0 0.0 0.00 0.00 0.00 86 1017.9
20260903050010 16 74 0.0 0.0 0.00 0.00 0.00 85 1018.2
20260903044508 16 74 0.0 0.0 0.00 0.00 0.00 86 1018.3
20260903043004 16 74 0.0 0.0 0.00 0.00 0.00 85 1018.1
20260903041502 16 74 0.0 0.0 0.00 0.00 0.00 85 1017.9
20260903040108 16 74 0.0 0.0 0.00 0.00 0.00 86 1017.7
20260903034558 16 74 0.0 0.0 0.00 0.00 0.00 85 1018.1
20260903033056 16 74 0.0 0.0 0.00 0.00 0.00 85 1018.5
20260903031604 16 74 0.0 0.0 0.00 0.00 0.00 85 1018.6
20260903030112 16 74 0.0 0.0 0.00 0.00 0.00 85 1018.5
20260903024556 16 74 0.0 0.0 0.00 0.00 0.00 84 1018.8
20260903023054 16 74 0.0 0.0 0.00 0.00 0.00 84 1019.1
20260903021553 16 74 0.0 0.0 0.00 0.00 0.00 84 1019.0
20260903020053 17 74 0.0 0.0 0.00 0.00 0.00 82 1018.8
20260903014600 17 74 0.0 0.0 0.00 0.00 0.00 82 1018.7
20260903013052 17 74 0.0 0.0 0.00 0.00 0.00 82 1018.9
20260903011606 17 74 0.0 0.0 0.00 0.00 0.00 82 1019.0
20260903010104 17 74 0.0 0.0 0.00 0.00 0.00 82 1019.1
20260903004549 18 74 0.0 0.0 0.00 0.00 0.00 81 1019.1
20260903003051 18 74 0.0 0.0 0.00 0.00 0.00 81 1019.2
20260903001549 18 74 0.0 0.0 0.00 0.00 0.00 80 1019.3
20260903000048 18 74 0.0 0.0 0.00 0.00 0.00 79 1019.6
20260902234548 18 74 0.0 0.0 0.00 0.00 0.00 78 1020.0
20260902233048 19 74 0.0 0.0 0.00 0.00 0.00 76 1019.7
20260902231605 20 74 0.0 0.0 0.00 0.00 0.00 75 1019.8
20260902230046 20 74 0.0 0.0 0.00 0.00 0.00 74 1020.0
20260902224559 20 74 0.0 6.4 0.00 0.00 0.00 72 1020.0
20260902223052 20 75 1.6 8.0 0.00 0.00 0.00 71 1019.9
20260902221601 21 88 0.0 6.4 0.00 0.00 0.00 71 1019.8
20260902220055 21 54 1.6 4.8 0.00 0.00 0.00 71 1019.6
20260902214543 21 44 1.6 4.8 0.00 0.03 0.00 71 1019.4
20260902213043 22 63 0.0 3.2 0.00 0.03 0.00 70 1019.3
20260902211542 22 59 0.0 6.4 0.00 0.03 0.00 68 1019.3
20260902210046 22 81 3.2 8.0 0.00 0.03 0.00 66 1019.6
20260902204547 22 65 3.2 9.7 0.00 0.08 0.00 63 1019.8
20260902203043 23 76 0.0 9.7 0.00 0.08 0.00 62 1019.6